GW4258 Weather Reports


time (UTC)temp
C
wind
direction
speed
KPH
gust
KPH
rain 1hr
cm
rain 24hr
cm
rain mn
cm
humidity
%
barometer
mb
20260510065712 10 305 4.8 6.4 0.00 0.03 0.03 99 1012.5
20260510065209 10 271 3.2 6.4 0.00 0.03 0.03 99 1012.6
20260510064705 10 249 0.0 0.0 0.00 0.03 0.03 99 1012.1
20260510064203 10 328 6.4 6.4 0.00 0.03 0.03 99 1012.5
20260510063700 10 106 0.0 0.0 0.00 0.03 0.03 99 1011.5
20260510063156 10 106 0.0 1.6 0.00 0.03 0.03 99 1011.6
20260510062652 10 106 0.0 0.0 0.00 0.03 0.03 99 1011.7
20260510062148 10 106 0.0 0.0 0.00 0.03 0.03 99 1012.0
20260510061643 10 106 0.0 1.6 0.00 0.03 0.03 99 1011.9
20260510061141 10 106 0.0 0.0 0.00 0.03 0.03 99 1011.8
20260510060637 10 106 0.0 0.0 0.00 0.03 0.03 99 1011.8
20260510060134 10 106 0.0 0.0 0.00 0.03 0.03 99 1012.0
20260510055630 10 106 0.0 0.0 0.00 0.03 0.03 99 1012.0
20260510055129 9 106 0.0 0.0 0.00 0.03 0.03 99 1011.9
20260510054624 9 106 0.0 0.0 0.00 0.03 0.03 99 1012.1
20260510054119 9 106 0.0 0.0 0.00 0.03 0.03 99 1012.2
20260510053619 8 106 0.0 0.0 0.18 0.03 0.03 99 1012.4
20260510053116 8 106 0.0 0.0 0.18 0.03 0.03 99 1012.3
20260510052611 8 106 0.0 0.0 0.00 0.00 0.00 99 1012.2
20260510052108 8 106 0.0 0.0 0.00 0.00 0.00 99 1011.8
20260510051603 8 106 0.0 0.0 0.00 0.00 0.00 99 1011.8
20260510051101 8 106 0.0 0.0 0.00 0.00 0.00 99 1011.6
20260510050558 8 106 0.0 0.0 0.00 0.00 0.00 99 1011.7
20260510050055 9 106 0.0 0.0 0.00 0.00 0.00 99 1011.4
20260510045552 9 106 0.0 0.0 0.00 0.00 0.00 99 1011.7
20260510045048 9 106 0.0 0.0 0.00 0.00 0.00 99 1011.7
20260510044545 9 106 0.0 0.0 0.00 0.00 0.00 99 1011.6
20260510044042 9 106 0.0 0.0 0.00 0.00 0.00 99 1011.7
20260510043538 9 106 0.0 0.0 0.00 0.00 0.00 99 1011.7
20260510043033 9 106 0.0 0.0 0.00 0.00 0.00 99 1011.6
20260510042527 9 106 0.0 0.0 0.00 0.00 0.00 99 1011.9
20260510042022 10 106 0.0 0.0 0.00 0.00 0.00 99 1012.0
20260510041520 10 106 0.0 0.0 0.00 0.00 0.00 99 1011.8
20260510041017 10 106 0.0 0.0 0.00 0.00 0.00 99 1011.7
20260510040514 10 106 0.0 0.0 0.00 0.00 0.00 99 1011.7
20260510040009 10 106 0.0 0.0 0.00 0.41 0.41 99 1011.7
20260510035506 10 106 0.0 0.0 0.00 0.41 0.41 99 1011.8
20260510035005 10 106 0.0 0.0 0.00 0.41 0.41 99 1011.6
20260510034504 10 106 0.0 0.0 0.00 0.41 0.41 99 1011.8
20260510033959 10 106 0.0 0.0 0.00 0.41 0.41 99 1011.6
20260510033455 10 106 0.0 0.0 0.00 0.41 0.41 99 1011.5
20260510032953 10 106 0.0 0.0 0.00 0.41 0.41 99 1011.6
20260510032450 10 106 0.0 0.0 0.00 0.41 0.41 99 1011.7
20260510031945 10 106 0.0 0.0 0.00 0.41 0.41 99 1011.5
20260510031441 11 106 0.0 0.0 0.00 0.41 0.41 99 1011.6
20260510030937 11 107 0.0 0.0 0.00 0.41 0.41 99 1011.6
20260510030432 11 108 0.0 4.8 0.00 0.41 0.41 99 1011.5
20260510025930 11 149 0.0 1.6 0.00 0.41 0.41 99 1011.5
20260510025427 11 142 0.0 1.6 0.00 0.41 0.41 99 1011.6
20260510024925 11 142 3.2 4.8 0.00 0.41 0.41 99 1011.6
20260510024421 11 201 1.6 1.6 0.00 0.41 0.41 99 1011.6
20260510023917 11 243 0.0 0.0 0.00 0.41 0.41 99 1011.6
20260510023413 11 199 0.0 1.6 0.00 0.41 0.41 99 1011.6
20260510022911 10 183 0.0 0.0 0.00 0.41 0.41 99 1011.4
20260510022410 11 183 0.0 1.6 0.00 0.41 0.41 99 1011.6
20260510021909 11 133 0.0 1.6 0.00 0.41 0.41 99 1011.4
20260510021407 11 73 0.0 0.0 0.00 0.41 0.41 99 1011.3
20260510020903 11 184 0.0 0.0 0.00 0.41 0.41 99 1011.6
20260510020358 11 184 0.0 0.0 0.00 0.41 0.41 99 1011.5
20260510015854 11 195 0.0 0.0 0.00 0.41 0.41 99 1011.3
20260510015350 11 187 1.6 1.6 0.00 0.41 0.41 99 1011.3
20260510014845 11 176 0.0 0.0 0.00 0.41 0.41 98 1011.1
20260510014343 11 176 0.0 1.6 0.00 0.41 0.41 97 1011.0
20260510013839 11 183 0.0 1.6 0.00 0.41 0.41 97 1011.2
20260510013335 11 183 0.0 1.6 0.00 0.41 0.41 97 1011.2
20260510012829 11 183 0.0 0.0 0.00 0.41 0.41 96 1011.2
20260510012324 11 183 0.0 0.0 0.00 0.41 0.41 96 1011.2
20260510011819 11 183 0.0 1.6 0.00 0.41 0.41 95 1011.1
20260510011315 11 189 0.0 1.6 0.00 0.41 0.41 95 1011.1
20260510010811 11 189 0.0 0.0 0.00 0.41 0.41 95 1011.0
20260510010309 11 189 0.0 0.0 0.00 0.41 0.41 94 1011.1
20260510005805 12 189 0.0 0.0 0.00 0.41 0.41 93 1011.0
20260510005301 12 188 1.6 1.6 0.00 0.41 0.41 92 1010.9
20260510004759 12 188 0.0 1.6 0.00 0.41 0.41 91 1010.8
20260510004256 12 180 0.0 4.8 0.00 0.41 0.41 90 1010.9
20260510003754 11 197 3.2 4.8 0.00 0.41 0.41 93 1010.8
20260510003251 11 198 0.0 1.6 0.00 0.41 0.41 94 1010.6
20260510002749 11 197 0.0 1.6 0.00 0.41 0.41 93 1010.7
20260510002247 12 197 1.6 1.6 0.00 0.41 0.41 93 1010.5
20260510001743 12 197 0.0 1.6 0.00 0.41 0.41 92 1010.5
20260510001242 12 197 0.0 1.6 0.00 0.41 0.41 92 1010.5
20260510000737 12 202 1.6 1.6 0.00 0.41 0.41 92 1010.4
20260510000235 12 202 0.0 1.6 0.00 0.41 0.41 92 1010.3
20260509235732 12 202 0.0 0.0 0.00 0.41 0.41 91 1010.3
20260509235228 12 202 0.0 1.6 0.00 0.41 0.41 91 1010.2
20260509234724 12 202 0.0 0.0 0.00 0.41 0.41 90 1010.1
20260509234221 13 202 0.0 0.0 0.00 0.41 0.41 89 1010.4
20260509233720 13 202 0.0 0.0 0.00 0.41 0.41 88 1010.3
20260509233217 13 202 0.0 0.0 0.00 0.41 0.41 85 1010.2
20260509232713 13 210 1.6 1.6 0.00 0.41 0.41 86 1010.3
20260509232209 13 210 0.0 1.6 0.00 0.41 0.41 84 1010.3
20260509231700 14 246 1.6 1.6 0.00 0.41 0.41 84 1010.1
20260509231158 14 264 1.6 1.6 0.00 0.41 0.41 82 1010.2
20260509230655 15 263 3.2 4.8 0.00 0.41 0.41 81 1010.3
20260509230152 14 264 0.0 0.0 0.00 0.41 0.41 82 1010.0
20260509225647 15 278 1.6 4.8 0.00 0.41 0.41 82 1010.3
20260509225143 15 281 3.2 4.8 0.00 0.41 0.41 81 1010.1
20260509224639 15 284 3.2 4.8 0.00 0.41 0.41 81 1010.2
20260509224136 14 265 3.2 4.8 0.00 0.41 0.41 83 1010.2
20260509223632 15 272 1.6 1.6 0.00 0.41 0.41 83 1010.1
20260509223124 15 281 4.8 4.8 0.00 0.41 0.41 83 1010.2
20260509222620 15 272 1.6 4.8 0.00 0.41 0.41 82 1009.8
20260509222116 15 289 6.4 6.4 0.00 0.41 0.41 81 1010.2
20260509221611 15 297 6.4 6.4 0.00 0.41 0.41 79 1010.1
20260509221108 15 288 6.4 8.0 0.00 0.41 0.41 78 1010.0
20260509220604 15 290 6.4 6.4 0.00 0.41 0.41 79 1010.2
20260509220100 15 290 4.8 6.4 0.00 0.41 0.41 80 1010.3
20260509215555 15 293 6.4 8.0 0.00 0.41 0.41 80 1010.4
20260509215053 14 297 6.4 6.4 0.00 0.41 0.41 83 1010.5
20260509214550 14 289 6.4 8.0 0.00 0.41 0.41 86 1010.5
20260509214047 14 273 3.2 6.4 0.00 0.41 0.41 83 1010.6
20260509213543 15 277 4.8 8.0 0.00 0.41 0.41 85 1010.6
20260509213040 14 285 3.2 11.3 0.00 0.41 0.41 85 1010.4
20260509212537 14 286 4.8 6.4 0.00 0.41 0.41 86 1010.4
20260509212034 14 274 3.2 6.4 0.00 0.41 0.41 85 1010.6
20260509211529 13 263 1.6 4.8 0.00 0.41 0.41 87 1010.5
20260509211027 13 263 3.2 4.8 0.00 0.41 0.41 89 1010.4
20260509210523 13 232 0.0 4.8 0.00 0.41 0.41 90 1010.6
20260509210020 13 270 0.0 0.0 0.00 0.41 0.41 91 1010.6
20260509205514 13 272 3.2 4.8 0.00 0.41 0.41 91 1010.8
20260509205010 13 252 3.2 4.8 0.00 0.41 0.41 92 1010.7
20260509204506 12 286 3.2 4.8 0.00 0.41 0.41 91 1010.8
20260509204003 12 287 1.6 4.8 0.00 0.41 0.41 91 1010.8
20260509203459 12 283 1.6 4.8 0.00 0.41 0.41 91 1010.7
20260509202956 12 278 3.2 6.4 0.00 0.41 0.41 91 1011.0
20260509202452 12 278 1.6 1.6 0.00 0.41 0.41 92 1010.9
20260509201947 12 279 1.6 1.6 0.00 0.41 0.41 92 1011.0
20260509201443 12 285 4.8 6.4 0.00 0.41 0.41 92 1011.1
20260509200940 12 287 1.6 4.8 0.00 0.41 0.41 92 1011.1
20260509200440 12 285 6.4 6.4 0.00 0.41 0.41 91 1011.1
20260509195937 12 278 3.2 6.4 0.00 0.41 0.41 91 1011.1
20260509195427 12 270 3.2 4.8 0.00 0.41 0.41 92 1011.3
20260509194926 12 268 1.6 4.8 0.00 0.41 0.41 92 1011.2
20260509194422 12 268 1.6 4.8 0.00 0.41 0.41 92 1011.1
20260509193920 12 275 1.6 4.8 0.00 0.41 0.41 92 1011.3
20260509193419 12 270 3.2 4.8 0.00 0.41 0.41 94 1011.1
20260509192915 12 278 1.6 1.6 0.00 0.41 0.41 95 1011.2
20260509192411 12 289 1.6 1.6 0.00 0.41 0.41 96 1011.3
20260509191907 12 292 1.6 1.6 0.00 0.41 0.41 97 1011.5
20260509191402 11 258 0.0 4.8 0.00 0.41 0.41 97 1011.2
20260509190859 11 285 0.0 0.0 0.00 0.41 0.41 98 1011.3
20260509190356 11 277 0.0 4.8 0.00 0.41 0.41 98 1011.4
20260509185853 12 290 0.0 1.6 0.00 0.41 0.41 98 1011.6
20260509185349 11 274 0.0 1.6 0.00 0.41 0.41 98 1011.9
20260509184847 11 272 1.6 1.6 0.00 0.41 0.41 98 1012.1
20260509184344 11 272 1.6 1.6 0.13 0.41 0.41 98 1012.1
20260509183840 11 276 3.2 4.8 0.13 0.41 0.41 98 1012.1
20260509183336 11 213 0.0 4.8 0.00 0.38 0.38 98 1012.0
20260509182832 11 263 0.0 4.8 0.00 0.38 0.38 97 1012.3
20260509182329 11 270 3.2 4.8 0.00 0.38 0.38 98 1012.1
20260509181826 11 273 1.6 4.8 0.18 0.38 0.38 98 1012.3
20260509181324 11 271 0.0 1.6 0.18 0.38 0.38 98 1012.1
20260509180821 11 276 0.0 1.6 0.00 0.36 0.36 98 1012.1
20260509180317 11 268 0.0 0.0 0.00 0.36 0.36 98 1012.2
20260509175813 11 268 1.6 1.6 0.13 0.36 0.36 98 1012.2
20260509175310 11 268 0.0 1.6 0.13 0.36 0.36 98 1012.1
20260509174806 11 294 1.6 1.6 0.00 0.33 0.33 98 1012.1
20260509174302 11 294 0.0 1.6 0.00 0.33 0.33 97 1012.0
20260509173758 11 294 1.6 1.6 0.18 0.33 0.33 97 1012.1
20260509173253 11 294 0.0 1.6 0.18 0.33 0.33 97 1012.1
20260509172749 11 294 1.6 4.8 0.18 0.30 0.30 97 1012.1
20260509172247 11 294 3.2 4.8 0.30 0.30 0.30 96 1012.1
20260509171742 11 292 1.6 4.8 0.13 0.28 0.28 96 1012.1
20260509171238 11 281 3.2 4.8 0.18 0.25 0.25 95 1012.1
20260509170735 11 281 1.6 4.8 0.30 0.25 0.25 95 1012.1
20260509170231 11 286 3.2 4.8 0.43 0.23 0.23 95 1012.1
20260509165729 11 276 0.0 1.6 0.48 0.20 0.20 93 1012.0
20260509165225 11 278 1.6 1.6 0.48 0.15 0.15 92 1012.2
20260509164721 11 283 4.8 6.4 0.30 0.10 0.10 91 1012.3
20260509164217 11 277 4.8 8.0 0.13 0.08 0.08 90 1012.5
20260509163715 12 289 6.4 8.0 0.18 0.05 0.05 90 1012.6
20260509163211 12 273 4.8 6.4 0.18 0.05 0.05 90 1012.4
20260509162709 12 262 4.8 6.4 0.18 0.03 0.03 89 1012.5
20260509162204 12 275 4.8 6.4 0.18 0.03 0.03 86 1012.4
20260509161700 12 290 6.4 6.4 0.00 0.00 0.00 86 1012.6
20260509161155 13 283 6.4 6.4 0.00 0.00 0.00 83 1012.7
20260509160651 13 265 3.2 4.8 0.00 0.00 0.00 83 1012.7
20260509160147 13 269 3.2 6.4 0.00 0.00 0.00 80 1012.5
20260509155643 13 290 6.4 8.0 0.00 0.00 0.00 80 1012.5
20260509155140 13 279 6.4 11.3 0.00 0.00 0.00 78 1012.7
20260509154635 13 277 8.0 11.3 0.00 0.00 0.00 78 1012.7
20260509154133 13 267 4.8 6.4 0.00 0.00 0.00 77 1012.8
20260509153630 14 284 6.4 11.3 0.00 0.00 0.00 75 1012.7
20260509153126 14 264 6.4 8.0 0.00 0.00 0.00 76 1012.8
20260509152622 14 275 4.8 8.0 0.00 0.00 0.00 77 1012.6
20260509152120 14 269 8.0 8.0 0.00 0.00 0.00 78 1012.6
20260509151616 14 282 3.2 6.4 0.00 0.00 0.00 78 1012.4
20260509151114 13 261 4.8 6.4 0.00 0.00 0.00 78 1012.8
20260509150611 13 281 6.4 6.4 0.00 0.00 0.00 78 1012.6
20260509150109 13 281 3.2 6.4 0.00 0.00 0.00 78 1012.6
20260509145605 13 269 0.0 4.8 0.00 0.00 0.00 80 1012.6
20260509145100 13 257 0.0 6.4 0.00 0.00 0.00 80 1012.8
20260509144557 13 289 3.2 6.4 0.00 0.00 0.00 79 1012.6
20260509144054 13 24 1.6 1.6 0.00 0.00 0.00 81 1012.1
20260509143551 13 121 1.6 4.8 0.00 0.00 0.00 81 1012.2
20260509143049 13 184 0.0 1.6 0.00 0.00 0.00 80 1012.3
20260509142544 13 200 1.6 1.6 0.00 0.00 0.00 80 1012.2
20260509142040 13 262 0.0 1.6 0.00 0.00 0.00 80 1012.3
20260509141532 13 330 1.6 1.6 0.00 0.00 0.00 81 1012.2
20260509141029 12 234 0.0 1.6 0.00 0.00 0.00 81 1012.1
20260509140525 12 234 1.6 1.6 0.00 0.00 0.00 83 1012.3
20260509140023 12 226 0.0 1.6 0.00 0.00 0.00 83 1012.3
20260509135520 12 116 0.0 0.0 0.00 0.00 0.00 84 1012.2
20260509135018 12 116 0.0 0.0 0.00 0.00 0.00 84 1012.2
20260509134515 12 64 0.0 0.0 0.00 0.00 0.00 84 1012.5
20260509134012 12 64 0.0 1.6 0.00 0.00 0.00 85 1012.3
20260509133508 12 114 1.6 1.6 0.00 0.00 0.00 85 1012.4
20260509133006 12 334 1.6 4.8 0.00 0.00 0.00 83 1012.3
20260509132504 12 113 0.0 0.0 0.00 0.00 0.00 85 1012.3
20260509132001 12 114 0.0 0.0 0.00 0.00 0.00 86 1012.4
20260509131459 11 113 0.0 4.8 0.00 0.00 0.00 85 1011.9
20260509130955 11 120 1.6 4.8 0.00 0.00 0.00 85 1011.9
20260509130450 11 103 4.8 6.4 0.00 0.00 0.00 85 1012.0
20260509125948 11 164 0.0 1.6 0.00 0.00 0.00 86 1012.0
20260509125444 11 96 3.2 4.8 0.00 0.00 0.00 85 1011.9
20260509124940 11 117 4.8 6.4 0.00 0.00 0.00 85 1012.0
20260509124438 11 118 1.6 4.8 0.00 0.00 0.00 86 1012.0
20260509123935 11 106 4.8 4.8 0.00 0.00 0.00 85 1012.0
20260509123432 11 101 3.2 4.8 0.00 0.00 0.00 85 1012.2
20260509122928 11 103 3.2 4.8 0.00 0.00 0.00 85 1012.2
20260509122425 11 103 0.0 1.6 0.00 0.00 0.00 86 1012.2
20260509121922 11 99 3.2 4.8 0.00 0.00 0.00 85 1012.1
20260509121419 11 106 0.0 1.6 0.00 0.00 0.00 85 1012.5
20260509120917 11 107 1.6 1.6 0.00 0.00 0.00 84 1012.3
20260509120414 11 109 0.0 4.8 0.00 0.00 0.00 84 1012.2
20260509115912 11 102 0.0 1.6 0.00 0.00 0.00 84 1012.3
20260509115409 11 103 0.0 0.0 0.00 0.00 0.00 84 1012.3
20260509114907 11 95 1.6 4.8 0.00 0.00 0.00 83 1012.3
20260509114405 11 94 3.2 6.4 0.00 0.00 0.00 83 1012.2
20260509113904 11 102 3.2 4.8 0.00 0.00 0.00 82 1012.2
20260509113400 10 115 1.6 4.8 0.00 0.00 0.00 83 1012.2
20260509112857 10 102 3.2 4.8 0.00 0.00 0.00 83 1012.2
20260509112354 10 149 1.6 4.8 0.00 0.00 0.00 84 1012.2
20260509111852 10 112 3.2 4.8 0.00 0.00 0.00 85 1011.8
20260509111348 10 128 3.2 4.8 0.00 0.00 0.00 85 1011.8
20260509110846 10 117 4.8 4.8 0.00 0.00 0.00 85 1012.0
20260509110342 10 107 4.8 6.4 0.00 0.00 0.00 85 1012.0
20260509105841 10 149 1.6 4.8 0.00 0.00 0.00 85 1011.8
20260509105338 10 118 1.6 4.8 0.00 0.00 0.00 85 1011.8
20260509104835 10 112 3.2 4.8 0.00 0.00 0.00 84 1012.0
20260509104331 10 109 1.6 4.8 0.00 0.00 0.00 83 1012.1
20260509103829 10 142 1.6 4.8 0.00 0.00 0.00 84 1011.9
20260509103326 10 115 1.6 4.8 0.00 0.00 0.00 83 1012.0
20260509102826 10 134 3.2 4.8 0.00 0.00 0.00 83 1011.8
20260509102322 10 121 1.6 4.8 0.00 0.00 0.00 83 1011.5
20260509101817 10 137 0.0 4.8 0.00 0.00 0.00 83 1011.7
20260509101314 10 117 6.4 8.0 0.00 0.00 0.00 83 1011.8
20260509100812 10 110 1.6 4.8 0.00 0.00 0.00 83 1011.7
20260509100309 10 133 3.2 4.8 0.00 0.00 0.00 84 1011.8
20260509095805 10 125 3.2 6.4 0.00 0.00 0.00 84 1011.6
20260509095305 10 106 1.6 4.8 0.00 0.00 0.00 84 1011.6
20260509094800 10 68 4.8 8.0 0.00 0.00 0.00 84 1011.5
20260509094256 10 96 1.6 6.4 0.00 0.00 0.00 82 1012.0
20260509093754 10 135 3.2 6.4 0.00 0.00 0.00 83 1011.6
20260509093251 10 115 0.0 6.4 0.00 0.00 0.00 82 1011.7
20260509092750 10 110 3.2 6.4 0.00 0.00 0.00 80 1011.9
20260509092247 10 110 1.6 4.8 0.00 0.00 0.00 81 1011.8
20260509091745 10 125 0.0 1.6 0.00 0.00 0.00 81 1012.1
20260509091241 10 125 0.0 0.0 0.00 0.00 0.00 82 1012.0
20260509090739 10 119 1.6 1.6 0.00 0.00 0.00 82 1012.0
20260509090235 10 138 0.0 1.6 0.00 0.00 0.00 82 1011.9
20260509085733 10 115 0.0 1.6 0.00 0.00 0.00 83 1012.0
20260509085231 10 129 3.2 4.8 0.00 0.00 0.00 84 1012.0
20260509084727 10 122 3.2 4.8 0.00 0.00 0.00 82 1012.2
20260509084223 10 99 0.0 1.6 0.00 0.00 0.00 82 1012.1
20260509083722 10 119 1.6 4.8 0.00 0.00 0.00 83 1012.1
20260509083218 10 116 0.0 1.6 0.00 0.00 0.00 83 1012.3
20260509082715 10 115 1.6 1.6 0.00 0.00 0.00 83 1012.3
20260509082212 10 115 1.6 1.6 0.00 0.00 0.00 81 1012.4
20260509081709 10 115 0.0 1.6 0.00 0.00 0.00 80 1012.4
20260509081206 10 140 0.0 1.6 0.00 0.00 0.00 80 1012.4
20260509080704 10 180 0.0 1.6 0.00 0.00 0.00 80 1012.5
20260509080201 10 180 0.0 1.6 0.00 0.00 0.00 79 1012.6
20260509075659 10 180 0.0 1.6 0.00 0.00 0.00 79 1012.6
20260509075157 10 180 0.0 0.0 0.00 0.00 0.00 80 1012.6
20260509074653 10 179 0.0 1.6 0.00 0.00 0.00 79 1012.5
20260509074150 10 179 0.0 0.0 0.00 0.00 0.00 79 1012.6
20260509073647 10 179 0.0 1.6 0.00 0.00 0.00 79 1012.4
20260509073143 10 179 0.0 0.0 0.00 0.00 0.00 78 1012.4
20260509072640 10 179 1.6 1.6 0.00 0.00 0.00 78 1012.4
20260509072137 10 179 1.6 1.6 0.00 0.00 0.00 80 1012.5
20260509071633 10 180 1.6 4.8 0.00 0.00 0.00 81 1012.3
20260509071131 10 180 0.0 1.6 0.00 0.00 0.00 82 1012.5
20260509070628 10 180 0.0 0.0 0.00 0.00 0.00 81 1012.4